�N����,����,�~����,�C��,���x,�C��,����,���ϕ���,�ő�u�ԕ���,�ő厞����,���˗�,�I�_���x,�n�����x,�ő啗���N��,DTYPE
"24/01/30","00:10",0.0,0.8,91.7,1022.7,287.9,1.5,1.9,321.7,0.00,-0.4,6.7,"00:00:40",1
"24/01/30","00:20",0.0,0.6,92.0,1022.7,306.7,1.6,1.9,314.0,0.00,-0.5,6.5,"00:12:32",1
"24/01/30","00:30",0.0,0.3,92.4,1022.5,325.0,1.8,2.4,316.8,0.00,-0.7,6.4,"00:27:12",1
"24/01/30","00:40",0.0,-0.2,92.9,1022.3,312.6,1.5,1.9,312.1,0.00,-1.2,6.6,"00:30:02",1
"24/01/30","00:50",0.0,0.1,93.2,1022.7,297.3,1.6,2.0,272.2,0.00,-0.8,6.5,"00:40:02",1
"24/01/30","01:00",0.0,0.6,93.3,1022.3,316.4,2.0,2.9,315.4,0.00,-0.3,6.5,"00:54:40",1
"24/01/30","01:10",0.0,0.3,93.6,1022.3,322.4,1.3,1.8,315.3,0.00,-0.6,6.5,"01:01:44",1
"24/01/30","01:20",0.0,-0.3,93.9,1022.5,321.5,1.7,2.5,315.0,0.00,-1.1,6.4,"01:12:24",1
"24/01/30","01:30",0.0,-0.1,94.3,1022.5,311.7,1.3,2.9,306.6,0.00,-0.9,6.3,"01:27:20",1
"24/01/30","01:40",0.0,-0.1,94.3,1022.5,333.3,1.0,2.0,348.7,0.00,-0.9,6.2,"01:30:24",1
"24/01/30","01:50",0.0,-0.1,95.0,1023.2,308.9,1.5,3.7,324.9,0.00,-0.8,6.1,"01:49:04",1
"24/01/30","02:00",0.0,0.7,95.1,1023.0,323.2,2.0,3.7,319.4,0.00,0.0,6.3,"01:59:12",1
"24/01/30","02:10",0.0,1.5,94.8,1023.0,319.9,2.6,5.0,316.3,0.00,0.8,6.1,"02:05:28",1
"24/01/30","02:20",0.0,1.2,94.8,1023.0,304.8,0.8,2.8,336.7,0.00,0.5,6.2,"02:10:32",1
"24/01/30","02:30",0.0,1.1,95.1,1023.4,289.1,1.8,3.2,320.5,0.00,0.4,6.3,"02:29:20",1
"24/01/30","02:40",0.0,1.1,95.1,1023.4,304.5,2.0,2.6,317.8,0.00,0.4,6.2,"02:32:32",1
"24/01/30","02:50",0.0,0.8,95.2,1023.4,303.9,1.3,1.8,313.9,0.00,0.2,6.1,"02:44:00",1
"24/01/30","03:00",0.0,0.6,95.3,1023.4,315.2,1.7,2.5,325.6,0.00,0.0,6.1,"02:53:44",1
"24/01/30","03:10",0.0,0.8,95.5,1023.2,323.6,2.1,3.2,337.7,0.00,0.2,5.9,"03:08:08",1
"24/01/30","03:20",0.0,0.9,95.5,1023.0,329.0,2.5,3.9,341.0,0.00,0.3,5.9,"03:18:00",1
"24/01/30","03:30",0.0,1.0,95.5,1023.0,327.8,2.2,3.4,338.2,0.00,0.4,5.8,"03:25:52",1
"24/01/30","03:40",0.0,1.0,95.5,1023.2,326.7,2.5,3.5,329.1,0.00,0.4,5.9,"03:38:48",1
"24/01/30","03:50",0.0,0.6,95.5,1023.2,333.1,1.5,2.7,329.6,0.00,0.0,5.7,"03:40:16",1
"24/01/30","04:00",0.0,0.2,95.7,1022.7,320.5,1.5,2.1,337.1,0.00,-0.4,5.7,"03:58:40",1
"24/01/30","04:10",0.0,0.1,95.6,1022.7,306.6,1.2,2.1,343.0,0.00,-0.5,5.7,"04:01:20",1
"24/01/30","04:20",0.0,-0.3,95.8,1023.0,279.3,0.7,1.1,270.7,0.00,-0.8,5.7,"04:13:28",1
"24/01/30","04:30",0.0,-0.3,95.9,1022.3,278.4,0.5,1.6,315.0,0.00,-0.8,5.8,"04:29:04",1
"24/01/30","04:40",0.0,-0.5,95.9,1022.0,294.9,1.3,1.6,285.8,0.00,-1.0,5.7,"04:34:32",1
"24/01/30","04:50",0.0,-0.1,96.1,1022.5,288.3,1.7,2.2,312.9,0.00,-0.6,5.6,"04:48:00",1
"24/01/30","05:00",0.0,-0.5,96.0,1022.3,320.3,1.6,2.5,315.7,0.00,-1.0,5.6,"04:54:16",1
"24/01/30","05:10",0.0,-1.0,96.2,1022.3,281.3,1.1,1.6,271.3,0.00,-1.5,5.6,"05:08:08",1
"24/01/30","05:20",0.0,-1.1,96.4,1022.5,307.6,1.7,2.5,320.3,0.00,-1.6,5.6,"05:18:24",1
"24/01/30","05:30",0.0,-1.2,96.5,1022.0,297.3,1.0,1.9,312.5,0.00,-1.6,5.5,"05:20:48",1
"24/01/30","05:40",0.0,-1.3,96.6,1022.5,310.5,1.7,2.7,324.2,0.00,-1.7,5.5,"05:34:32",1
"24/01/30","05:50",0.0,-1.5,96.8,1023.0,302.5,1.3,2.1,318.8,0.00,-1.9,5.5,"05:48:56",1
"24/01/30","06:00",0.0,-1.6,96.8,1023.0,303.3,1.5,2.0,312.3,0.00,-2.0,5.4,"05:53:36",1
"24/01/30","06:10",0.0,-1.5,97.0,1022.3,294.9,1.1,1.9,320.0,0.00,-1.9,5.5,"06:08:24",1
"24/01/30","06:20",0.0,-1.5,97.1,1023.0,310.5,1.3,1.8,312.8,0.00,-1.9,5.4,"06:16:56",1
"24/01/30","06:30",0.0,-1.6,97.1,1022.7,289.0,1.0,1.4,314.7,0.00,-2.0,5.3,"06:20:08",1
"24/01/30","06:40",0.0,-1.7,97.2,1023.2,295.8,1.5,2.1,317.1,0.00,-2.0,5.2,"06:38:48",1
"24/01/30","06:50",0.0,-1.7,97.4,1023.2,310.5,1.5,1.9,316.2,0.00,-2.0,5.4,"06:40:40",1
"24/01/30","07:00",0.0,-1.6,97.4,1023.0,307.5,1.5,1.9,317.5,0.00,-1.9,5.2,"06:50:16",1
"24/01/30","07:10",0.0,-1.6,97.4,1023.0,293.2,1.0,1.3,285.9,0.00,-1.9,5.2,"07:08:22",1
"24/01/30","07:20",0.0,-1.7,97.6,1023.0,281.0,0.8,1.4,304.4,0.00,-2.0,5.1,"07:10:16",1
"24/01/30","07:30",0.0,-1.6,97.7,1023.2,299.3,1.5,1.9,314.9,0.00,-1.9,5.1,"07:27:28",1
"24/01/30","07:40",0.0,-1.4,97.9,1023.4,325.5,2.1,2.5,319.3,0.01,-1.6,4.9,"07:39:38",1
"24/01/30","07:50",0.0,-0.8,98.0,1023.2,303.2,1.7,2.5,311.0,0.03,-1.0,5.0,"07:42:14",1
"24/01/30","08:00",0.0,0.3,97.3,1023.4,290.0,0.8,1.2,296.6,0.05,0.0,4.9,"07:56:12",1
"24/01/30","08:10",0.0,0.5,97.6,1023.7,267.6,1.2,1.4,260.0,0.08,0.2,5.3,"08:04:54",1
"24/01/30","08:20",0.0,1.3,97.7,1023.9,281.6,0.8,1.4,293.7,0.10,1.0,5.1,"08:19:20",1
"24/01/30","08:30",0.0,2.1,97.6,1024.1,305.1,1.1,1.8,315.9,0.13,1.8,4.9,"08:29:20",1
"24/01/30","08:40",0.0,2.6,97.5,1024.4,307.8,1.7,2.2,309.2,0.15,2.3,5.0,"08:34:24",1
"24/01/30","08:50",0.0,3.2,97.4,1024.4,259.9,0.6,1.8,317.4,0.18,2.9,4.8,"08:40:48",1
"24/01/30","09:00",0.0,3.7,97.4,1024.9,295.0,1.1,1.7,306.2,0.19,3.4,5.1,"08:51:04",1
"24/01/30","09:10",0.0,4.1,97.0,1025.3,270.3,0.6,1.0,289.0,0.23,3.7,5.1,"09:03:38",1
"24/01/30","09:20",0.0,4.9,96.9,1025.1,286.2,0.5,1.2,295.3,0.26,4.5,4.8,"09:17:32",1
"24/01/30","09:30",0.0,5.2,96.4,1025.6,269.1,0.6,1.4,257.1,0.28,4.7,5.0,"09:21:24",1
"24/01/30","09:40",0.0,5.0,95.5,1026.0,199.5,0.8,1.7,142.9,0.31,4.4,4.9,"09:36:30",1
"24/01/30","09:50",0.0,5.1,94.7,1026.0,218.2,0.8,1.6,128.6,0.33,4.4,5.2,"09:44:18",1
"24/01/30","10:00",0.0,5.8,93.8,1026.3,246.4,0.8,1.9,260.9,0.35,4.9,5.3,"09:50:16",1
"24/01/30","10:10",0.0,6.5,92.0,1026.3,284.1,0.7,1.9,312.5,0.38,5.3,5.2,"10:02:08",1
"24/01/30","10:20",0.0,6.8,89.0,1026.5,230.2,1.0,1.9,237.9,0.40,5.2,5.3,"10:19:44",1
"24/01/30","10:30",0.0,7.2,83.9,1027.0,206.1,1.2,2.0,228.1,0.41,4.7,5.4,"10:20:24",1
"24/01/30","10:40",0.0,7.8,80.1,1027.2,228.3,1.0,1.9,245.4,0.43,4.6,5.3,"10:33:04",1
"24/01/30","10:50",0.0,8.0,76.1,1026.5,327.9,0.7,1.2,254.1,0.44,4.1,5.4,"10:40:52",1
"24/01/30","11:00",0.0,8.5,73.0,1026.5,246.1,0.8,1.8,216.3,0.46,4.0,5.5,"10:59:22",1
"24/01/30","11:10",0.0,9.0,71.4,1026.3,231.5,1.2,2.1,214.8,0.48,4.1,5.7,"11:07:16",1
"24/01/30","11:20",0.0,9.4,69.3,1026.0,198.5,1.1,2.6,202.2,0.49,4.1,5.7,"11:19:56",1
"24/01/30","11:30",0.0,9.3,67.9,1026.0,209.7,1.5,2.4,217.8,0.50,3.7,5.9,"11:21:36",1
"24/01/30","11:40",0.0,9.8,66.4,1025.6,181.5,1.3,2.6,205.6,0.51,3.9,6.0,"11:34:02",1
"24/01/30","11:50",0.0,10.1,65.2,1025.3,218.8,1.3,2.9,243.9,0.51,3.9,6.2,"11:44:16",1
"24/01/30","12:00",0.0,10.4,64.6,1024.6,201.1,1.5,3.6,223.9,0.51,4.1,6.3,"11:58:32",1
"24/01/30","12:10",0.0,10.8,62.9,1024.6,195.4,1.5,3.3,161.3,0.52,4.1,6.4,"12:04:56",1
"24/01/30","12:20",0.0,11.1,61.5,1024.6,181.9,1.6,2.8,207.7,0.52,4.0,6.6,"12:10:56",1
"24/01/30","12:30",0.0,11.5,61.4,1024.4,203.1,1.6,3.5,172.6,0.51,4.4,6.5,"12:25:38",1
"24/01/30","12:40",0.0,11.5,59.7,1023.9,151.2,1.5,2.9,126.8,0.52,4.0,6.7,"12:30:48",1
"24/01/30","12:50",0.0,11.4,58.9,1023.4,144.4,1.5,3.3,123.5,0.51,3.7,6.8,"12:48:32",1
"24/01/30","13:00",0.0,12.0,58.0,1023.2,194.9,1.8,3.6,187.7,0.49,4.0,6.6,"12:57:52",1
"24/01/30","13:10",0.0,11.7,57.5,1023.2,142.4,2.0,3.7,118.5,0.41,3.6,7.1,"13:05:32",1
"24/01/30","13:20",0.0,12.2,57.2,1022.7,167.7,1.6,2.7,149.4,0.43,4.0,7.1,"13:15:54",1
"24/01/30","13:30",0.0,12.1,56.2,1022.7,149.8,1.8,2.8,131.5,0.37,3.7,7.1,"13:22:08",1
"24/01/30","13:40",0.0,12.7,56.1,1022.7,175.6,1.6,2.5,128.1,0.39,4.2,7.2,"13:31:28",1
"24/01/30","13:50",0.0,12.9,53.2,1022.5,196.5,2.1,4.0,209.4,0.43,3.7,7.5,"13:41:44",1
"24/01/30","14:00",0.0,12.9,51.3,1022.5,202.5,2.1,3.7,198.4,0.44,3.1,7.4,"13:50:40",1
"24/01/30","14:10",0.0,13.3,50.4,1022.3,191.3,1.8,3.3,202.9,0.42,3.3,7.6,"14:03:36",1
"24/01/30","14:20",0.0,13.5,49.5,1022.7,167.9,1.6,2.6,137.2,0.39,3.2,7.6,"14:13:52",1
"24/01/30","14:30",0.0,13.3,48.5,1022.3,177.4,1.8,3.5,201.6,0.37,2.7,7.7,"14:29:12",1
"24/01/30","14:40",0.0,13.2,48.9,1022.7,178.4,2.0,3.5,149.9,0.32,2.7,8.0,"14:31:20",1
"24/01/30","14:50",0.0,13.5,49.4,1022.5,195.0,1.7,3.6,151.5,0.32,3.2,7.9,"14:46:12",1
"24/01/30","15:00",0.0,13.3,48.2,1022.7,194.1,1.8,3.5,126.8,0.28,2.6,8.0,"14:53:36",1
"24/01/30","15:10",0.0,12.3,50.7,1022.7,208.4,2.1,4.3,235.4,0.09,2.4,8.0,"15:08:44",1
"24/01/30","15:20",0.0,11.8,52.7,1022.7,200.2,2.5,4.5,230.7,0.06,2.5,8.0,"15:13:44",1
"24/01/30","15:30",0.0,11.8,54.1,1022.5,220.7,1.5,3.4,221.8,0.06,2.9,8.1,"15:22:42",1
"24/01/30","15:40",0.0,12.0,54.5,1023.0,208.6,1.5,2.6,235.3,0.08,3.2,8.2,"15:32:04",1
"24/01/30","15:50",0.0,12.2,54.3,1023.0,214.6,1.3,2.8,206.5,0.10,3.3,8.3,"15:48:56",1
"24/01/30","16:00",0.0,12.1,53.9,1022.3,209.8,1.6,3.2,223.3,0.07,3.1,8.4,"15:56:00",1
"24/01/30","16:10",0.0,12.0,53.7,1022.7,210.8,1.1,2.6,186.5,0.06,2.9,8.2,"16:09:20",1
"24/01/30","16:20",0.0,12.0,53.6,1022.5,215.8,1.5,2.5,227.1,0.06,2.9,8.4,"16:16:54",1
"24/01/30","16:30",0.0,12.4,53.7,1022.7,229.8,1.2,2.2,233.0,0.09,3.3,8.3,"16:28:00",1
"24/01/30","16:40",0.0,12.1,54.1,1022.7,224.2,1.3,2.5,239.5,0.06,3.1,8.3,"16:31:12",1
"24/01/30","16:50",0.0,12.0,53.3,1023.0,233.3,1.5,2.5,243.5,0.05,2.8,8.4,"16:43:12",1
"24/01/30","17:00",0.0,11.6,54.4,1023.0,237.8,1.3,2.6,237.4,0.02,2.8,8.5,"16:51:06",1
"24/01/30","17:10",0.0,11.1,55.5,1022.7,275.4,1.3,1.7,263.3,0.00,2.6,8.2,"17:05:36",1
"24/01/30","17:20",0.0,10.6,61.2,1023.0,328.8,1.5,2.2,321.2,0.00,3.5,8.3,"17:15:38",1
"24/01/30","17:30",0.0,9.6,65.8,1023.0,317.2,2.1,2.9,316.1,0.00,3.6,8.4,"17:24:48",1
"24/01/30","17:40",0.0,8.9,68.2,1022.7,311.5,1.3,2.2,331.7,0.00,3.4,8.2,"17:36:24",1
"24/01/30","17:50",0.0,8.1,70.3,1022.5,316.7,1.7,2.6,317.9,0.00,3.1,8.4,"17:41:20",1
"24/01/30","18:00",0.0,7.7,72.2,1023.0,313.8,2.0,2.5,299.7,0.00,3.1,8.1,"17:57:44",1
"24/01/30","18:10",0.0,7.5,73.5,1022.7,287.7,2.0,2.5,299.4,0.00,3.1,8.2,"18:04:24",1
"24/01/30","18:20",0.0,7.3,74.4,1022.7,295.4,2.0,2.6,317.5,0.00,3.1,8.1,"18:16:32",1
"24/01/30","18:30",0.0,7.1,75.4,1022.7,303.1,2.3,3.6,311.6,0.00,3.1,8.1,"18:26:56",1
"24/01/30","18:40",0.0,6.8,76.5,1023.0,297.8,2.6,4.0,315.0,0.00,3.0,8.1,"18:38:56",1
"24/01/30","18:50",0.0,6.5,77.4,1023.0,294.8,2.0,3.1,302.2,0.00,2.9,7.8,"18:40:08",1
"24/01/30","19:00",0.0,6.3,78.2,1023.0,296.0,2.2,2.8,306.1,0.00,2.8,8.0,"18:53:52",1
"24/01/30","19:10",0.0,6.1,78.8,1023.0,310.1,2.2,2.9,324.0,0.00,2.7,8.1,"19:05:38",1
"24/01/30","19:20",0.0,5.6,79.6,1023.0,319.2,2.0,2.5,313.6,0.00,2.4,8.0,"19:19:46",1
"24/01/30","19:30",0.0,5.7,80.5,1023.0,300.2,2.3,3.4,316.4,0.00,2.7,7.8,"19:24:30",1
"24/01/30","19:40",0.0,5.7,81.4,1023.2,295.0,2.1,2.9,299.8,0.00,2.8,7.9,"19:36:40",1
"24/01/30","19:50",0.0,5.9,82.0,1023.2,305.1,3.2,5.1,306.9,0.00,3.1,7.8,"19:47:14",1
"24/01/30","20:00",0.0,5.8,82.1,1023.2,301.1,2.8,4.0,330.4,0.00,3.0,7.6,"19:58:22",1
"24/01/30","20:10",0.0,5.4,82.1,1022.7,316.2,2.1,2.8,305.0,0.00,2.6,7.5,"20:00:58",1
"24/01/30","20:20",0.0,4.7,82.5,1023.2,319.4,1.8,2.4,331.8,0.00,2.0,7.6,"20:12:06",1
"24/01/30","20:30",0.0,4.4,83.8,1023.0,313.6,1.8,2.1,313.8,0.00,1.9,7.7,"20:21:12",1
"24/01/30","20:40",0.0,4.6,84.4,1023.0,314.1,1.7,2.0,299.4,0.00,2.2,7.5,"20:30:56",1
"24/01/30","20:50",0.0,3.9,85.0,1023.0,329.4,1.8,2.5,333.1,0.00,1.7,7.4,"20:42:24",1
"24/01/30","21:00",0.0,3.2,85.8,1022.7,313.8,1.3,2.1,334.9,0.00,1.1,7.5,"20:51:06",1
"24/01/30","21:10",0.0,3.1,86.6,1022.7,313.1,1.2,1.8,313.7,0.00,1.1,7.3,"21:07:44",1
"24/01/30","21:20",0.0,3.2,87.4,1022.7,321.9,1.6,2.0,313.3,0.00,1.4,7.3,"21:14:50",1
"24/01/30","21:30",0.0,3.4,88.1,1022.5,304.8,1.7,2.9,329.8,0.00,1.7,7.5,"21:26:08",1
"24/01/30","21:40",0.0,3.6,88.5,1022.5,305.6,1.8,2.8,329.6,0.00,1.9,7.3,"21:38:04",1
"24/01/30","21:50",0.0,3.6,88.8,1022.5,297.6,1.7,2.6,319.3,0.00,2.0,7.0,"21:48:02",1
"24/01/30","22:00",0.0,3.6,88.9,1022.5,309.1,1.7,2.5,296.9,0.00,2.0,7.2,"21:52:02",1
"24/01/30","22:10",0.0,3.3,89.1,1022.5,304.4,1.7,2.4,308.5,0.00,1.7,7.2,"22:00:08",1
"24/01/30","22:20",0.0,3.2,89.2,1022.5,317.2,1.7,2.1,307.7,0.00,1.6,7.1,"22:14:12",1
"24/01/30","22:30",0.0,2.5,89.4,1022.5,316.0,1.7,2.2,314.4,0.00,1.0,7.0,"22:28:30",1
"24/01/30","22:40",0.0,2.3,89.9,1022.3,298.0,1.3,2.5,319.8,0.00,0.9,7.2,"22:34:08",1
"24/01/30","22:50",0.0,2.9,90.2,1022.0,291.6,1.7,2.9,292.1,0.00,1.5,6.9,"22:46:32",1
"24/01/30","23:00",0.0,2.6,90.4,1022.0,326.3,1.7,2.2,333.0,0.00,1.2,7.0,"22:57:40",1
"24/01/30","23:10",0.0,2.0,90.7,1022.0,315.2,1.3,2.1,315.1,0.00,0.7,6.9,"23:04:50",1
"24/01/30","23:20",0.0,1.9,91.2,1022.0,299.5,1.5,2.4,319.6,0.00,0.7,7.0,"23:17:36",1
"24/01/30","23:30",0.0,1.8,91.3,1022.3,325.8,1.8,2.2,333.8,0.00,0.6,6.7,"23:24:56",1
"24/01/30","23:40",0.0,1.3,91.7,1022.0,299.4,1.2,1.9,318.8,0.00,0.1,6.7,"23:37:52",1
"24/01/30","23:50",0.0,1.4,92.2,1021.5,317.7,1.8,2.5,315.4,0.00,0.3,6.9,"23:43:20",1
"24/01/30","24:00",0.0,1.3,92.3,1021.5,301.5,1.0,2.2,323.5,0.00,0.2,6.5,"23:50:16",1
